RH
75 74 67 57 43 35 32 27 23 21 18 16 16 16 16 17 17 18 18 17 16 16 16 15 16 16 16 16 15 15 15 15 14 14 14 14 14 13 12 11 11 11
72 70 65 59 50 41 36 31 27 26 24 21 20 20 20 21 23 24 25 25 24 23 23 22 22 23 23 23 23 23 23 22 22 21 22 22 21 20 19 18 17 16
65 65 60 57 56 49 41 37 34 33 31 28 25 25 25 27 29 30 30 30 29 29 29 28 28 27 27 28 27 28 27 27 27 26 25 25 25 24 24 24 23 23
62 65 59 53 56 55 49 45 42 41 40 36 33 32 31 31 33 34 34 33 32 33 33 33 32 31 30 30 30 30 30 31 31 31 29 28 27 26 25 26 27 27
63 67 66 57 55 56 54 52 49 46 45 42 39 38 38 37 38 39 39 38 37 36 36 35 35 36 35 34 35 35 34 33 34 35 36 35 34 33 32 32 31 32
62 65 66 58 54 55 55 54 51 48 48 47 44 43 43 42 42 43 45 45 44 41 40 39 38 38 39 39 40 40 38 38 38 39 39 40 39 38 38 38 36 36
62 62 61 55 53 56 57 55 54 52 51 50 48 46 47 47 46 46 46 48 48 46 46 45 45 44 44 44 45 44 43 42 41 41 41 40 40 39 39 39 39 39
59 57 56 55 56 58 58 57 58 59 57 54 53 52 52 53 53 52 50 49 50 49 49 50 50 51 50 51 51 50 49 47 45 44 44 42 42 41 41 41 42 42
52 52 52 55 59 60 60 60 62 64 61 57 57 56 55 56 58 59 59 57 56 54 55 54 53 54 56 57 58 58 56 53 51 49 48 47 47 46 46 46 46 46
51 54 55 58 60 60 62 63 68 73 69 62 60 58 56 57 59 62 64 64 63 62 61 59 58 59 61 62 63 64 64 61 58 55 54 53 53 52 51 50 49 47
52 57 58 59 61 64 69 68 69 74 72 66 63 61 59 60 61 64 66 66 66 65 64 64 66 67 67 68 69 68 68 67 65 63 62 59 56 54 52 52 51 48
53 58 58 58 61 66 73 78 75 74 74 71 68 68 68 68 68 67 67 66 65 64 63 64 67 68 69 71 71 69 70 71 69 68 68 65 59 55 53 51 50 49
54 55 52 55 62 64 68 80 85 84 82 78 75 77 78 79 81 78 74 71 67 65 64 63 64 65 66 67 66 66 71 76 75 72 69 65 63 61 57 52 49 49
61 58 53 52 60 67 71 76 81 87 90 83 81 83 83 84 87 86 83 80 75 70 68 65 65 64 64 63 62 62 67 72 73 73 71 68 66 65 61 57 53 51
67 62 60 58 61 72 81 81 79 84 90 87 85 84 80 79 80 80 79 79 76 71 67 65 65 64 63 64 62 61 63 65 65 67 69 69 67 64 63 63 60 58
58 53 61 70 71 71 77 79 76 73 75 77 78 77 76 77 78 76 74 72 70 67 65 65 66 65 65 67 65 64 65 65 64 64 66 67 66 63 61 59 60 63
52 51 59 70 70 63 61 67 69 64 60 62 63 64 68 72 72 70 67 66 67 69 69 70 69 68 69 68 66 65 64 63 62 61 62 63 62 62 61 60 62 64
48 50 54 58 59 56 56 59 62 60 57 55 55 56 58 59 59 58 56 58 62 67 69 69 67 66 66 63 62 63 62 60 60 61 62 60 59 61 64 69 71 68
43 45 47 50 51 51 50 50 52 53 53 53 53 52 51 52 54 55 56 57 60 63 65 66 65 64 63 62 63 64 64 62 61 62 62 61 61 64 68 71 71 70
42 43 44 46 47 45 44 45 46 48 50 51 52 50 49 51 54 56 57 57 57 58 59 61 60 59 58 58 58 58 59 57 56 56 56 57 60 64 68 69 69 71
44 43 42 43 43 43 43 45 46 46 47 48 48 48 47 47 47 47 48 49 50 49 50 50 49 47 46 46 45 45 45 46 48 50 51 52 54 59 65 72 74 73
47 46 44 43 42 42 43 42 40 39 38 37 38 39 40 39 38 37 37 39 41 41 41 42 41 39 37 36 35 34 33 35 39 45 49 49 49 50 56 65 69 68
49 49 48 47 46 46 44 40 37 36 33 31 31 31 32 31 31 32 33 34 37 38 39 40 40 38 36 33 32 30 29 30 33 38 43 45 45 45 45 50 55 58
51 51 51 51 50 50 48 44 41 39 36 33 32 31 32 32 33 35 37 38 39 40 41 42 43 41 39 37 36 34 32 33 36 41 44 44 44 44 43 43 45 49
55 54 53 52 51 50 50 49 46 43 39 36 33 31 32 34 36 38 41 43 45 46 46 46 46 44 44 44 43 41 39 38 41 45 47 45 43 43 42 40 39 43
62 60 57 55 54 53 54 52 49 44 40 38 35 33 32 32 34 38 42 45 47 48 49 50 49 49 49 49 49 47 44 40 40 42 44 44 43 41 40 38 37 40